This is the latest recevied weather packets stored in our database for station/object N0FDH. If no packets are shown the sender has not sent any weather packets the latest 1 day(s).
| Time | Temp. | Humidity | Pressure | Rain* | Wind** | Luminosity | Snow |
|---|---|---|---|---|---|---|---|
| 1777987736 | 2.78° C | 59% | 1008.4 hPa | 0 mm | 2.68 m/s, 330° | 114 W/m² | - |
| 1777987434 | 2.78° C | 60% | 1008.3 hPa | 0 mm | 2.24 m/s, 331° | 63 W/m² | - |
| 1777987131 | 2.78° C | 59% | 1008.5 hPa | 0 mm | 2.68 m/s, 310° | 56 W/m² | - |
| 1777986828 | 2.78° C | 64% | 1008.2 hPa | 0 mm | 2.68 m/s, 305° | 52 W/m² | - |
| 1777986526 | 2.78° C | 63% | 1008.3 hPa | 0 mm | 2.24 m/s, 257° | 52 W/m² | - |
| 1777986224 | 2.22° C | 60% | 1008.1 hPa | 0 mm | 1.79 m/s, 257° | 40 W/m² | - |
| 1777985921 | 2.22° C | 61% | 1008 hPa | 0 mm | 2.68 m/s, 322° | 41 W/m² | - |
| 1777985618 | 2.22° C | 64% | 1007.8 hPa | 0 mm | 1.79 m/s, 310° | 44 W/m² | - |
| 1777985315 | 2.22° C | 63% | 1008.1 hPa | 0 mm | 4.02 m/s, 336° | 43 W/m² | - |
| 1777985011 | 2.22° C | 64% | 1008 hPa | 0 mm | 1.79 m/s, 257° | 39 W/m² | - |
| 1777984707 | 2.22° C | 62% | 1007.7 hPa | 0 mm | 2.68 m/s, 336° | 42 W/m² | - |
| 1777984404 | 2.22° C | 62% | 1007.6 hPa | 0 mm | 1.79 m/s, 6° | 31 W/m² | - |
| 1777984100 | 2.22° C | 63% | 1007.6 hPa | 0 mm | 2.68 m/s, 335° | 43 W/m² | - |
| 1777983798 | 2.22° C | 66% | 1007.5 hPa | 0 mm | 3.13 m/s, 325° | 56 W/m² | - |
| 1777983494 | 2.22° C | 66% | 1007.5 hPa | 0 mm | 2.68 m/s, 321° | 27 W/m² | - |
| 1777983191 | 2.22° C | 66% | 1007.2 hPa | 0 mm | 2.68 m/s, 309° | 23 W/m² | - |
| 1777982888 | 1.67° C | 68% | 1007.4 hPa | 0 mm | 1.79 m/s, 306° | 22 W/m² | - |
| 1777982584 | 1.67° C | 69% | 1007.3 hPa | 0 mm | 2.68 m/s, 324° | 29 W/m² | - |
| 1777982282 | 1.67° C | 67% | 1007.1 hPa | 0 mm | 2.24 m/s, 325° | 24 W/m² | - |
| 1777981980 | 1.67° C | 70% | 1007.1 hPa | 0 mm | 2.24 m/s, 335° | 28 W/m² | - |
| 1777981677 | 1.67° C | 70% | 1007.1 hPa | 0 mm | 2.24 m/s, 324° | 19 W/m² | - |
| 1777981373 | 1.67° C | 71% | 1007.1 hPa | 0 mm | 2.24 m/s, 311° | 17 W/m² | - |
| 1777981070 | 1.67° C | 73% | 1006.9 hPa | 0 mm | 1.79 m/s, 239° | 16 W/m² | - |
| 1777980767 | 1.67° C | 71% | 1006.9 hPa | 0 mm | 1.79 m/s, 341° | 14 W/m² | - |
| 1777980462 | 1.67° C | 72% | 1006.8 hPa | 0 mm | 1.79 m/s, 265° | 13 W/m² | - |
* Rain latest hour (hover to see other rain measurements)
** Current wind speed in m/s (hover to see current wind gust speed)